LRCL Weather Reports


time (UTC)temp
C
wind
direction
speed
KPH
gust
KPH
rain 1hr
cm
rain 24hr
cm
rain mn
cm
humidity
%
barometer
mb
20260906023308 15 260 4.8 0.0 0.00 0.00 0.00 72 1020.0
20260906021815 16 260 9.7 0.0 0.00 0.00 0.00 68 1020.0
20260906020310 16 260 9.7 0.0 0.00 0.00 0.00 68 1020.0
20260906014809 16 270 8.0 0.0 0.00 0.00 0.00 68 1020.0
20260906013422 16 270 8.0 0.0 0.00 0.00 0.00 68 1020.0
20260906011808 16 260 8.0 0.0 0.00 0.00 0.00 68 1020.0
20260906010308 16 260 8.0 0.0 0.00 0.00 0.00 68 1020.0
20260906004923 15 250 11.3 0.0 0.00 0.00 0.00 77 1020.0
20260906003433 -17 0.0 0.0 0.00 0.00 0.00
20260906001922 16 270 9.7 0.0 0.00 0.00 0.00 72 1020.0
20260906000412 17 280 9.7 0.0 0.00 0.00 0.00 68 1019.0
20260905234818 17 280 9.7 0.0 0.00 0.00 0.00 68 1019.0
20260905233308 17 280 9.7 0.0 0.00 0.00 0.00 68 1019.0
20260905231922 16 280 9.7 0.0 0.00 0.00 0.00 77 1019.0
20260905230340 16 280 9.7 0.0 0.00 0.00 0.00 77 1019.0
20260905224923 17 280 11.3 0.0 0.00 0.00 0.00 68 1019.0
20260905223322 17 280 11.3 0.0 0.00 0.00 0.00 68 1019.0
20260905221907 17 310 11.3 0.0 0.00 0.00 0.00 68 1020.0
20260905220422 17 310 11.3 0.0 0.00 0.00 0.00 68 1020.0
20260905214922 18 290 11.3 0.0 0.00 0.00 0.00 68 1019.0
20260905213308 18 290 11.3 0.0 0.00 0.00 0.00 68 1019.0
20260905211808 20 310 14.5 0.0 0.00 0.00 0.00 64 1019.0
20260905210308 20 310 14.5 0.0 0.00 0.00 0.00 64 1019.0
20260905204818 21 330 16.1 0.0 0.00 0.00 0.00 64 1019.0
20260905203308 21 330 16.1 0.0 0.00 0.00 0.00 64 1019.0
20260905201808 20 290 8.0 0.0 0.00 0.00 0.00 69 1018.0
20260905200423 21 310 14.5 0.0 0.00 0.00 0.00 64 1018.0
20260905194914 21 310 14.5 0.0 0.00 0.00 0.00 64 1018.0
20260905193308 21 310 14.5 0.0 0.00 0.00 0.00 64 1018.0
20260905191837 21 310 12.9 0.0 0.00 0.00 0.00 64 1017.0
20260905190309 21 310 12.9 0.0 0.00 0.00 0.00 64 1017.0
20260905184809 22 310 17.7 0.0 0.00 0.00 0.00 57 1017.0
20260905183313 22 310 17.7 0.0 0.00 0.00 0.00 57 1017.0
20260905181808 22 320 20.9 0.0 0.00 0.00 0.00 57 1017.0
20260905180309 22 320 20.9 0.0 0.00 0.00 0.00 57 1017.0
20260905174808 22 310 16.1 0.0 0.00 0.00 0.00 57 1016.0
20260905173308 22 310 16.1 0.0 0.00 0.00 0.00 57 1016.0
20260905171819 23 290 24.1 0.0 0.00 0.00 0.00 47 1016.0
20260905170308 23 290 24.1 0.0 0.00 0.00 0.00 47 1016.0
20260905164808 25 270 14.5 0.0 0.00 0.00 0.00 42 1016.0
20260905163309 25 270 14.5 0.0 0.00 0.00 0.00 42 1016.0
20260905161809 25 280 12.9 0.0 0.00 0.00 0.00 44 1016.0
20260905160309 25 280 12.9 0.0 0.00 0.00 0.00 44 1016.0
20260905154825 23 300 9.7 0.0 0.00 0.00 0.00 50 1016.0
20260905153308 23 300 9.7 0.0 0.00 0.00 0.00 50 1016.0
20260905151808 25 350 17.7 0.0 0.00 0.00 0.00 47 1017.0
20260905150309 25 350 17.7 0.0 0.00 0.00 0.00 47 1017.0
20260905144808 26 300 14.5 0.0 0.00 0.00 0.00 45 1016.0
20260905143308 26 300 14.5 0.0 0.00 0.00 0.00 45 1016.0
20260905141808 26 320 16.1 0.0 0.00 0.00 0.00 45 1016.0
20260905140308 26 320 16.1 0.0 0.00 0.00 0.00 45 1016.0
20260905134919 27 330 22.5 0.0 0.00 0.00 0.00 40 1015.0
20260905133308 27 330 22.5 0.0 0.00 0.00 0.00 40 1015.0
20260905131811 28 340 22.5 0.0 0.00 0.00 0.00 35 1015.0
20260905130330 28 340 22.5 0.0 0.00 0.00 0.00 35 1015.0
20260905124809 30 350 22.5 0.0 0.00 0.00 0.00 33 1015.0
20260905123309 30 350 22.5 0.0 0.00 0.00 0.00 33 1015.0
20260905121835 31 360 22.5 0.0 0.00 0.00 0.00 31 1015.0
20260905120309 31 360 22.5 0.0 0.00 0.00 0.00 31 1015.0
20260905114808 31 340 12.9 0.0 0.00 0.00 0.00 31 1015.0
20260905113308 31 340 12.9 0.0 0.00 0.00 0.00 31 1015.0
20260905111827 32 10 14.5 0.0 0.00 0.00 0.00 31 1015.0
20260905110308 32 10 14.5 0.0 0.00 0.00 0.00 31 1015.0
20260905104808 30 3.2 0.0 0.00 0.00 0.00 33 1015.0
20260905103308 30 3.2 0.0 0.00 0.00 0.00 33 1015.0
20260905101808 31 4.8 0.0 0.00 0.00 0.00 31 1015.0
20260905100309 31 4.8 0.0 0.00 0.00 0.00 31 1015.0
20260905094923 30 70 8.0 0.0 0.00 0.00 0.00 33 1015.0
20260905093308 30 70 8.0 0.0 0.00 0.00 0.00 33 1015.0
20260905091808 28 40 8.0 0.0 0.00 0.00 0.00 37 1015.0
20260905090308 28 40 8.0 0.0 0.00 0.00 0.00 37 1015.0
20260905084808 27 50 9.7 0.0 0.00 0.00 0.00 40 1015.0
20260905083308 27 50 9.7 0.0 0.00 0.00 0.00 40 1015.0
20260905081808 26 60 9.7 0.0 0.00 0.00 0.00 45 1015.0
20260905080309 26 60 9.7 0.0 0.00 0.00 0.00 45 1015.0
20260905074808 23 60 9.7 0.0 0.00 0.00 0.00 50 1016.0
20260905073317 23 60 9.7 0.0 0.00 0.00 0.00 50 1016.0
20260905071808 21 70 4.8 0.0 0.00 0.00 0.00 57 1016.0
20260905070308 21 70 4.8 0.0 0.00 0.00 0.00 57 1016.0
20260905064809 18 3.2 0.0 0.00 0.00 0.00 64 1016.0
20260905063309 18 3.2 0.0 0.00 0.00 0.00 64 1016.0
20260905061809 17 1.6 0.0 0.00 0.00 0.00 73 1016.0
20260905060309 17 1.6 0.0 0.00 0.00 0.00 73 1016.0
20260905054808 15 1.6 0.0 0.00 0.00 0.00 82 1016.0
20260905053309 15 1.6 0.0 0.00 0.00 0.00 82 1016.0
20260905051808 13 3.2 0.0 0.00 0.00 0.00 82 1016.0
20260905050308 13 3.2 0.0 0.00 0.00 0.00 82 1016.0
20260905044808 12 0 0.0 0.0 0.00 0.00 0.00 88 1016.0
20260905043308 12 0 0.0 0.0 0.00 0.00 0.00 88 1016.0
20260905041808 12 0 0.0 0.0 0.00 0.00 0.00 88 1016.0
20260905040308 12 0 0.0 0.0 0.00 0.00 0.00 88 1016.0
20260905034809 12 80 3.2 0.0 0.00 0.00 0.00 88 1016.0
20260905033308 12 80 3.2 0.0 0.00 0.00 0.00 88 1016.0
20260905031808 12 90 4.8 0.0 0.00 0.00 0.00 88 1016.0
20260905030308 12 90 4.8 0.0 0.00 0.00 0.00 88 1016.0
20260905024821 12 100 4.8 0.0 0.00 0.00 0.00 88 1016.0